[[{"header":{"parameterUnit":"m.s-1","parameterCategory":1,"la1":30.2991,"la2":30.254,"lo1":-89.0895,"lo2":-89.0444,"dx":0.0017,"dy":0.0017,"nx":28,"ny":28,"refTime":"2022-12-03T09:00:00:Z","depth":0,"parameterNumber":2,"parameterNumberName":"U-component_of_WINDS"},"data":[0,0,0,0,0,0,0,0,0,0,0,0,0,0,0,0,0,0,0,0,0,0,0,0,0,0,0,0,0,0,0,0,0,0,0,0,0,0,0,0,0,0,0,0,0,0,0,0,0,0,0,0,0,0,0,0,0,0,0.7814,0.7814,0,0.7801,0.7801,0.7801,0.7769,0.7768,0.7768,0.7767,0.7755,0.7755,0.7755,0,0,0,0,0,0,0,0,0,0,0,0,0,0.7813,0.7814,0.7814,0.7814,0.7814,0.7801,0.7801,0.7801,0.7769,0.7768,0.7768,0.7767,0.7755,0.7755,0.7755,0,0,0,0,0,0,0,0,0,0,0,0,0,0.7808,0.7814,0.7814,0.7797,0.7795,0.7801,0.7801,0.78,0.7769,0.7768,0.7767,0.7766,0.7755,0.7755,0.7756,0.7778,0,0,0.7757,0.7757,0,0,0,0,0,0,0,0,0.7809,0.7808,0.7799,0.7798,0.7796,0.7786,0.7796,0.7793,0.777,0.7779,0.7767,0.7766,0.7766,0.7765,0.7765,0.7778,0.7777,0.7757,0.7757,0.7757,0.7757,0,0,0,0,0,0,0,0.7809,0.7809,0.7809,0.7799,0.7797,0.779,0.7788,0.7795,0.7778,0.7778,0.7776,0.7775,0.7765,0.7765,0.7765,0.7777,0.7757,0.7757,0.7758,0.7758,0.7806,0.7807,0,0,0,0,0,0,0.7812,0.7809,0.7809,0.7809,0.78,0.779,0.7788,0.779,0.7778,0.7775,0.7775,0.7773,0.7765,0.7764,0.7764,0.7789,0.7757,0.7758,0.7758,0.7805,0.7806,0.7808,0,0,0,0,0,0,0.7812,0.7812,0.781,0.7808,0.7807,0.7792,0.7793,0.779,0.779,0.7776,0.7773,0.7778,0.7764,0.7763,0.7775,0.7788,0.7758,0.7758,0.7804,0.7806,0.7807,0.784,0,0,0,0,0,0,0.7812,0.7812,0.782,0.7809,0.7808,0.782,0.7794,0.7791,0.7791,0.7788,0.7778,0.7776,0.7763,0.7774,0.7775,0.7788,0.7759,0.7803,0.7805,0.7807,0.7837,0.7842,0.7846,0,0,0,0,0,0.7812,0.7831,0.7821,0.7821,0.7817,0.7821,0.7821,0.7805,0.7792,0.78,0.7791,0.7776,0.7787,0.7775,0.7776,0.779,0.7802,0.7804,0.7806,0.7835,0.7841,0.7846,0,0,0,0,0,0,0.7845,0.7829,0.7818,0.7833,0.7829,0.7816,0.7826,0.7812,0.7812,0.7809,0.7791,0.7789,0.7802,0.7797,0.7785,0.7811,0.7792,0.7794,0.7813,0.7819,0.7823,0.7824,0.7759,0,0,0,0,0,0.7854,0.7858,0.7844,0.7859,0.7857,0.7842,0.7843,0.7831,0.7826,0.7824,0.7816,0.7812,0.7814,0.7816,0.7818,0.7836,0.7834,0.7846,0.7851,0.7854,0.7857,0.7865,0.7871,0.7815,0.7815,0.7815,0,0,0.7873,0.7864,0.7868,0.7865,0.786,0.7865,0.784,0.7847,0.785,0.7826,0.7835,0.7829,0.7823,0.7838,0.7844,0.7834,0.7871,0.7857,0.786,0.7861,0.7868,0.7873,0.7878,0.7817,0.7816,0.7816,0,0,0.7909,0.7903,0.7915,0.791,0.7903,0.7893,0.7896,0.7885,0.7879,0.7889,0.787,0.7874,0.7879,0.7875,0.7874,0.7909,0.7894,0.791,0.7933,0.7942,0.7946,0.795,0.7961,0.7966,0.7912,0.7912,0.7912,0,0.7933,0.7939,0.7922,0.7929,0.7929,0.7906,0.7917,0.7914,0.7908,0.7908,0.7897,0.7902,0.7896,0.791,0.7918,0.7918,0.792,0.791,0.7947,0.795,0.7953,0.7964,0.7969,0.7914,0.7914,0.7914,0.7913,0,0.7969,0.7974,0.7984,0.7978,0.7978,0.7987,0.7972,0.7974,0.7963,0.7954,0.7963,0.7956,0.7955,0.7958,0.7947,0.7969,0.7963,0.795,0.793,0.7961,0.7971,0.7975,0.7917,0.7916,0.7915,0.7915,0,0,0.8026,0.801,0.8014,0.801,0.8001,0.8004,0.8012,0.8011,0.8013,0.801,0.8016,0.802,0.8008,0.8006,0.7995,0.8003,0.803,0.7988,0.7988,0.7995,0.8053,0.8063,0.8068,0.802,0.8021,0.8022,0.8053,0,0.8059,0.8072,0.8057,0.8073,0.8076,0.8055,0.8062,0.8057,0.8049,0.8051,0.8042,0.8045,0.8028,0.8027,0.8034,0.8025,0.8041,0.8023,0.8026,0.8026,0.8027,0.8073,0.8083,0.8113,0.8057,0.8058,0.8058,0,0.81,0.8098,0.8114,0.8102,0.8103,0.811,0.8107,0.811,0.8104,0.8097,0.8095,0.8081,0.8089,0.807,0.808,0.8068,0.8068,0.8064,0.8065,0.8064,0.8043,0.8073,0.8123,0.8127,0.8064,0.8064,0.8063,0,0.8139,0.814,0.8149,0.8147,0.8135,0.814,0.8135,0.8127,0.8127,0.8125,0.8125,0.8124,0.8123,0.8123,0.8109,0.8097,0.812,0.8101,0.8115,0.8115,0.812,0.812,0.817,0.8122,0.8122,0.8122,0.8122,0,0.8177,0.8188,0.8166,0.8172,0.8183,0.8166,0.8178,0.8171,0.8164,0.8168,0.815,0.8155,0.8136,0.8139,0.8128,0.8137,0.8138,0.8132,0.8129,0.8134,0.8134,0.8133,0.813,0.8123,0.8123,0.8123,0.8122,0,0.8222,0.8208,0.8217,0.8204,0.8201,0.821,0.8199,0.8204,0.8194,0.82,0.82,0.8185,0.8187,0.8173,0.8173,0.8166,0.818,0.8174,0.8182,0.8179,0.8194,0.8193,0.8245,0.825,0.8199,0.82,0.82,0,0.8247,0.8255,0.8242,0.8243,0.8239,0.8241,0.8241,0.8224,0.8225,0.8218,0.8224,0.8224,0.8223,0.8227,0.8217,0.8216,0.8209,0.8228,0.8209,0.8213,0.8208,0.8208,0.8208,0.8231,0.8232,0.8232,0.8233,0,0.8293,0.8286,0.8286,0.8283,0.8283,0.8281,0.8277,0.8279,0.8261,0.8262,0.8264,0.8263,0.8262,0.8262,0.826,0.8255,0.8241,0.8239,0.8242,0.8246,0.825,0.8247,0.8191,0.8238,0.8237,0.8237,0.8236,0.8236,0.8328,0.8333,0.8325,0.8326,0.8321,0.8318,0.8321,0.8312,0.8313,0.831,0.8301,0.8304,0.8297,0.8292,0.8288,0.829,0.8281,0.8286,0.8287,0.8288,0.829,0.825,0.829,0.829,0.8289,0.8289,0.8289,0,0.8372,0.8366,0.8366,0.8361,0.8362,0.8348,0.8343,0.8344,0.8347,0.8342,0.8341,0.8343,0.8343,0.8332,0.8331,0.8334,0.8328,0.8335,0.8334,0.8333,0.8299,0.8296,0.834,0.834,0.834,0.834,0.834,0.834,0.8395,0.8403,0.8395,0.84,0.8394,0.8396,0.8394,0.8391,0.8387,0.8389,0.8389,0.8382,0.8374,0.8372,0.8371,0.8368,0.8368,0.8377,0.8372,0.834,0.8335,0.8331,0.8328,0.8377,0.8377,0.8405,0.8405,0.8406]},{"header":{"parameterUnit":"m.s-1","parameterCategory":1,"la1":30.2991,"la2":30.254,"lo1":-89.0895,"lo2":-89.0444,"dx":0.0017,"dy":0.0017,"nx":28,"ny":28,"refTime":"2022-12-03T09:00:00:Z","depth":0,"parameterNumber":3,"parameterNumberName":"V-component_of_WINDS"},"data":[0,0,0,0,0,0,0,0,0,0,0,0,0,0,0,0,0,0,0,0,0,0,0,0,0,0,0,0,0,0,0,0,0,0,0,0,0,0,0,0,0,0,0,0,0,0,0,0,0,0,0,0,0,0,0,0,0,0,1.8765,1.8765,0,1.8722,1.8721,1.8721,1.8695,1.8695,1.8695,1.8695,1.8644,1.8643,1.8642,0,0,0,0,0,0,0,0,0,0,0,0,0,1.882,1.882,1.8765,1.8765,1.8764,1.8722,1.8721,1.8721,1.8695,1.8695,1.8695,1.8695,1.8645,1.8643,1.8642,0,0,0,0,0,0,0,0,0,0,0,0,0,1.8789,1.8819,1.8765,1.8746,1.8744,1.8722,1.8721,1.872,1.8695,1.8695,1.8695,1.8695,1.8645,1.8643,1.8641,1.8633,0,0,1.8636,1.8635,0,0,0,0,0,0,0,0,1.879,1.8787,1.875,1.8748,1.8745,1.8714,1.8722,1.8691,1.8695,1.8714,1.8695,1.8695,1.8667,1.8663,1.8655,1.863,1.8628,1.8635,1.8634,1.8633,1.8633,0,0,0,0,0,0,0,1.8793,1.8788,1.8748,1.8749,1.8746,1.8738,1.8734,1.8716,1.8691,1.8712,1.871,1.8706,1.8666,1.8657,1.8654,1.8627,1.8635,1.8634,1.8633,1.8632,1.8593,1.8593,0,0,0,0,0,0,1.8799,1.879,1.8749,1.8746,1.8768,1.8737,1.8732,1.8724,1.8692,1.8687,1.8706,1.8705,1.866,1.8656,1.8652,1.864,1.8633,1.8632,1.8631,1.8592,1.8593,1.8593,0,0,0,0,0,0,1.88,1.8795,1.8751,1.8768,1.8762,1.8737,1.8728,1.8723,1.8715,1.8687,1.8682,1.8702,1.866,1.8655,1.8638,1.8638,1.8631,1.8629,1.8592,1.8592,1.8593,1.8615,0,0,0,0,0,0,1.8802,1.8796,1.8794,1.8768,1.8761,1.8739,1.8728,1.8722,1.8712,1.871,1.8682,1.8677,1.866,1.8641,1.8636,1.8635,1.8628,1.8592,1.8592,1.8593,1.8614,1.8616,1.8618,0,0,0,0,0,1.8804,1.88,1.8794,1.8789,1.8758,1.874,1.8735,1.8717,1.8712,1.8709,1.8691,1.8678,1.8639,1.864,1.8634,1.8632,1.8592,1.8592,1.8593,1.8614,1.8616,1.8618,0,0,0,0,0,0,1.8824,1.8797,1.8789,1.8777,1.8761,1.8735,1.8731,1.872,1.8703,1.8701,1.8678,1.8671,1.8657,1.8643,1.8644,1.8622,1.8614,1.8613,1.8632,1.8634,1.8635,1.8639,1.8626,0,0,0,0,0,1.8828,1.8817,1.8793,1.8785,1.8778,1.8756,1.8747,1.8734,1.8716,1.8708,1.8689,1.867,1.8653,1.8642,1.8625,1.8612,1.8605,1.8608,1.861,1.8611,1.861,1.8602,1.8603,1.8593,1.8593,1.8593,0,0,1.8834,1.8818,1.8812,1.8789,1.8775,1.8763,1.875,1.8737,1.8728,1.8705,1.869,1.8675,1.8652,1.8637,1.8629,1.8624,1.8612,1.8611,1.8613,1.8611,1.8603,1.8603,1.8604,1.8593,1.8593,1.8593,0,0,1.884,1.8827,1.8819,1.8806,1.8786,1.8771,1.877,1.8745,1.8736,1.8719,1.8703,1.869,1.8661,1.8646,1.8634,1.8635,1.8622,1.863,1.8638,1.863,1.8631,1.8631,1.8632,1.8632,1.8629,1.8629,1.8629,0,1.885,1.8834,1.8816,1.8805,1.8795,1.8777,1.8768,1.8755,1.873,1.8722,1.8718,1.8682,1.8665,1.8647,1.8647,1.8638,1.8634,1.8633,1.8633,1.8633,1.8633,1.8633,1.8633,1.863,1.863,1.863,1.863,0,1.8847,1.8835,1.8831,1.881,1.8799,1.8789,1.8769,1.8759,1.8748,1.8733,1.8717,1.8696,1.8675,1.8669,1.8657,1.8649,1.8646,1.8638,1.8629,1.8636,1.8635,1.8635,1.8632,1.8632,1.8631,1.8631,0,0,1.8864,1.8834,1.8833,1.8823,1.8799,1.8789,1.8778,1.8759,1.8752,1.8734,1.8724,1.8701,1.8693,1.868,1.8665,1.8658,1.866,1.865,1.8649,1.8653,1.8649,1.8656,1.8657,1.8652,1.8652,1.8651,1.8651,0,1.8867,1.8848,1.8832,1.8819,1.8807,1.879,1.878,1.8764,1.875,1.8737,1.872,1.8705,1.8695,1.8687,1.868,1.8662,1.8659,1.8661,1.864,1.8639,1.8647,1.8656,1.8663,1.8664,1.8651,1.8651,1.8651,0,1.8867,1.8853,1.8839,1.8817,1.8812,1.8804,1.8785,1.8774,1.8754,1.8744,1.873,1.8716,1.8702,1.8695,1.8674,1.8676,1.8666,1.8656,1.8655,1.8652,1.8646,1.8653,1.8664,1.8664,1.865,1.865,1.865,0,1.8881,1.8858,1.8847,1.8839,1.8814,1.8808,1.8797,1.8777,1.8767,1.875,1.8743,1.8725,1.8714,1.8699,1.8679,1.8676,1.866,1.8652,1.865,1.8651,1.8648,1.8648,1.8657,1.8642,1.8642,1.8642,1.8642,0,1.8886,1.8878,1.8854,1.8847,1.8837,1.8818,1.8808,1.8795,1.8778,1.8767,1.875,1.8739,1.8714,1.87,1.8684,1.8669,1.8664,1.8655,1.8651,1.8657,1.8658,1.865,1.8649,1.8642,1.8642,1.8642,1.8642,0,1.89,1.8883,1.887,1.8847,1.8842,1.8835,1.8815,1.8807,1.8792,1.8779,1.8774,1.8751,1.8733,1.8712,1.8687,1.8677,1.8663,1.8657,1.8671,1.8668,1.8668,1.8669,1.8672,1.8671,1.8657,1.8657,1.8657,0,1.8904,1.8897,1.8875,1.8867,1.8857,1.8845,1.8835,1.8816,1.8806,1.8784,1.8778,1.876,1.8745,1.8718,1.8697,1.8678,1.8671,1.8673,1.8668,1.8674,1.8671,1.8671,1.867,1.8675,1.8675,1.8675,1.8675,0,1.8912,1.8905,1.8893,1.8877,1.8867,1.8853,1.8839,1.8833,1.8811,1.88,1.8784,1.8772,1.8748,1.873,1.8708,1.8694,1.868,1.8678,1.8676,1.8682,1.869,1.8686,1.8675,1.8677,1.8677,1.8677,1.8677,1.8677,1.8921,1.8915,1.8899,1.8885,1.8873,1.886,1.8852,1.8837,1.8824,1.8804,1.8793,1.8777,1.8756,1.8727,1.8713,1.8699,1.8694,1.8692,1.8691,1.8691,1.8693,1.8693,1.8695,1.8695,1.8694,1.8694,1.8694,0,1.8929,1.8918,1.8906,1.8888,1.8877,1.8868,1.8851,1.8842,1.8829,1.8812,1.8798,1.8779,1.8761,1.874,1.8721,1.8713,1.8706,1.8709,1.8709,1.8706,1.8699,1.8702,1.8714,1.8714,1.8714,1.8714,1.8714,1.8714,1.8932,1.8921,1.8912,1.8894,1.8882,1.8868,1.886,1.8847,1.8834,1.8814,1.88,1.8787,1.8769,1.8748,1.8731,1.8725,1.8718,1.8722,1.8714,1.8708,1.8706,1.8704,1.8707,1.8721,1.8721,1.8722,1.8722,1.8722]}]]